STARLINK-3045 (49173 NORAD) Tracking and Keplerian Element Data

This shows tracking and keplerian element data for the satellite.

Feedback or suggestion? Click here.




ElementValue
Catalog49173
NameSTARLINK-3045
Epoch Orbit367
Epoch Day300.58334491
Epoch Year2021
RAAN4.3314
Inclination69.9999
Eccentricity0.0003565
Argument of Perigee299.1209
Mean Anonmoly35.4871
Mean Motion15.69769436
Decay Rate-0.00042281
L11 49173U 21082AV 21300.58334491 -.00042281 00000-0 -35387-3 0 9998
L22 49173 69.9999 4.3314 0003565 299.1209 35.4871 15.69769436 3673

Live tracking and technical data element details for STARLINK-3045 (NORAD 49173). STARLINK-3045 can be tracked NOW for your location showing map with azimuth and elevation plus other details from your city location.

Track the satellite on the map from your city or location and see movement details for azimuth, elevation, latitude, longitude, range, height, and movement on the map or in text.







IsCatalogInMostPopularTable: catalog: 49173, numindb: 6
Update: records affected: 1



GetName: 49173 STARLINK-3045

Hit Count: updated at: Thu, 28 Oct 2021 11:11:55 GMT